Voltar ao catálogo

STARLINK-5852

AtivoComunicaçõesVLEO
NORAD 55933·PAYLOAD·🇺🇸 United States

Lançado Mar 17, 2023 de Vandenberg Space Force Base

Loading…

Próximas Passagens (próximas 24 horas)

TLE

AtualizadoSource: CelesTrak SupGP

Época: Sep 14, 2026, 21:19 UTC

1 55933C 23037V   26257.88868056  .00382570  00000+0  30961-1 0  2572
2 55933  70.0006 167.5122 0003127 268.9934 251.4674 14.99483231    12

Acompanhe STARLINK-5852 em tempo real com AllMySat

Download on the App Store